BULGARIASAT-1

Last updated on Nov. 22, 2019, 4:19 a.m. UTC

1 42801U 17038A   19325.23215306  .00000010  00000-0  00000+0 0  9996
2 42801   0.0641 101.2865 0002640 137.6431 266.5018  1.00271644  8841
UTC
Height (km)
Latitude
Longitude
Inclination
Orbital Period
UTC large
Height (km)
Speed (km/s)
/
Latitude / Longitude
Inclination (degrees)
Orbital Period (minutes)
Azimuth
Elevation
Range (km)
Doppler Factor
iOS Compass Heading
iOS Angle

Next 30 passes for location: Hong Kong

Rise time Rise Azimuth (degrees) Set time Set Azimuth (degrees) Duration Max altitude (degrees)

No matching passes for this satellites